OK1UOJ Weather Reports


Display with metric or nautical units.
time (UTC)temp
F
wind
direction
speed
MPH
gust
MPH
rain 1hr
in
rain 24hr
in
rain mn
in
humidity
%
barometer
mb
20260502181520 58 135 2.0 2.0 0.00 0.00 0.00 10 1020.8
20260502180609 60 135 2.0 2.0 0.00 0.00 0.00
20260502180604 60 135 2.0 2.0 0.00 0.00 0.00 99 1020.8
20260502180132 0 120 2.0 0.0 0.00 0.00 0.00 94 1020.8
20260502180127 61 120 2.0 2.0 0.00 0.00 0.00 94 1020.8
20260502170115 70 135 1.0 2.0 0.00 0.00 0.00 35 1021.0
20260502164243 71 135 2.0 3.0 0.00 0.00 0.00 31 1021.2
20260502161926 72 135 1.0 3.0 0.00 0.00 0.00 27 1021.5
20260502161453 72 138 3.0 4.0 0.00 0.00 0.00 29 1021.6
20260502161448 72 138 3.0 4.0 0.00 0.00 0.00 29 1021.6
20260502161010 72 144 3.0 4.0 0.00 0.00 0.00 27 1021.7
20260502160537 72 150 2.0 2.0 0.00 0.00 0.00 29 1021.7
20260502160532 72 150 2.0 2.0 0.00 0.00 0.00 29 1021.7
20260502151914 77 123 1.0 2.0 0.00 0.00 0.00 25 1022.3
20260502151908 77 123 1.0 2.0 0.00 0.00 0.00 25 1022.3
20260502151435 77 134 1.0 2.0 0.00 0.00 0.00 24 1022.3
20260502130429 75 128 3.0 5.0 0.00 0.00 0.00 27 1023.8
20260502130423 75 128 3.0 5.0 0.00 0.00 0.00 27 1023.8
20260502123635 76 335 2.0 3.0 0.00 0.00 0.00 29 1024.2
20260502123156 75 316 2.0 4.0 0.00 0.00 0.00 30 1024.2
20260502123151 75 316 2.0 4.0 0.00 0.00 0.00 30 1024.2
20260502122717 75 139 3.0 7.0 0.00 0.00 0.00 29 1024.3
20260502122712 75 139 3.0 7.0 0.00 0.00 0.00 29 1024.3
20260502122238 75 135 4.0 8.0 0.00 0.00 0.00 26 1024.3
20260502122234 75 135 4.0 8.0 0.00 0.00 0.00 26 1024.3
20260502121759 76 63 2.0 3.0 0.00 0.00 0.00 27 1024.4
20260502121754 76 63 2.0 3.0 0.00 0.00 0.00 27 1024.4
20260502121320 75 174 2.0 4.0 0.00 0.00 0.00 28 1024.5
20260502121315 75 174 2.0 4.0 0.00 0.00 0.00 28 1024.5
20260502120841 76 57 2.0 3.0 0.00 0.00 0.00 28 1024.5
20260502120836 76 57 2.0 3.0 0.00 0.00 0.00 28 1024.5
20260502115923 75 160 2.0 3.0 0.00 0.00 0.00 29 1024.7
20260502115918 75 160 2.0 3.0 0.00 0.00 0.00 29 1024.7
20260502115445 75 160 2.0 4.0 0.00 0.00 0.00 30 1024.8
20260502115440 75 160 2.0 4.0 0.00 0.00 0.00 30 1024.8
20260502114043 74 168 2.0 3.0 0.00 0.00 0.00 33 1025.0
20260502113130 74 151 2.0 4.0 0.00 0.00 0.00 33 1025.2
20260502113125 74 151 2.0 4.0 0.00 0.00 0.00 33 1025.2
20260502112651 73 114 2.0 0.0 0.00 0.00 0.00 33 1025.2
20260502112646 73 114 2.0 5.0 0.00 0.00 0.00 33 1025.2
20260502111729 73 145 3.0 5.0 0.00 0.00 0.00 34 1025.2
20260502111250 73 132 3.0 7.0 0.00 0.00 0.00 31 1025.4
20260502110338 73 156 1.0 3.0 0.00 0.00 0.00 34 1025.4
20260502110333 73 156 1.0 3.0 0.00 0.00 0.00 34 1025.4
20260502105859 73 137 3.0 5.0 0.00 0.00 0.00 32 1025.5
20260502105854 73 137 3.0 5.0 0.00 0.00 0.00 32 1025.5
20260502105420 72 147 4.0 6.0 0.00 0.00 0.00 33 1025.5
20260502105415 72 147 4.0 6.0 0.00 0.00 0.00 33 1025.5
20260502104936 72 144 4.0 7.0 0.00 0.00 0.00 34 1025.6
20260502104503 72 142 3.0 5.0 0.00 0.00 0.00 34 1025.6
20260502104458 72 142 3.0 5.0 0.00 0.00 0.00 34 1025.6
20260502103545 72 180 2.0 3.0 0.00 0.00 0.00 36 1025.8
20260502103540 72 180 2.0 3.0 0.00 0.00 0.00 36 1025.8
20260502103106 71 136 4.0 5.0 0.00 0.00 0.00 34 1025.8
20260502103102 71 136 4.0 5.0 0.00 0.00 0.00 34 1025.8
20260502102628 71 129 3.0 5.0 0.00 0.00 0.00 35 1025.9
20260502102623 71 129 3.0 5.0 0.00 0.00 0.00 35 1025.9
20260502102149 71 144 3.0 6.0 0.00 0.00 0.00 35 1026.0
20260502102144 71 144 3.0 6.0 0.00 0.00 0.00 35 1026.0
20260502101718 71 151 4.0 7.0 0.00 0.00 0.00 36 1026.0
20260502101711 71 151 4.0 7.0 0.00 0.00 0.00 36 1026.0
20260502101706 71 151 4.0 7.0 0.00 0.00 0.00 36 1026.0
20260502101227 72 151 2.0 3.0 0.00 0.00 0.00 36 1026.1
20260502100753 72 347 2.0 2.0 0.00 0.00 0.00 35 1026.1
20260502100748 72 347 2.0 2.0 0.00 0.00 0.00 35 1026.1
20260502100309 71 150 2.0 4.0 0.00 0.00 0.00 38 1026.2
20260502091208 70 152 2.0 3.0 0.00 0.00 0.00 41 1026.8
20260502091203 70 152 2.0 3.0 0.00 0.00 0.00 41 1026.8
20260502090725 71 145 3.0 4.0 0.00 0.00 0.00 42 1026.8
20260502090247 71 128 2.0 5.0 0.00 0.00 0.00 44 1026.9
20260502070644 60 326 2.0 2.0 0.00 0.00 0.00 10 1027.5
20260502065255 62 61 1.0 2.0 0.00 0.00 0.00 10 1027.4
20260502065250 62 61 1.0 2.0 0.00 0.00 0.00 10 1027.4
20260502064812 61 61 1.0 2.0 0.00 0.00 0.00 10 1027.5
20260502063857 58 340 1.0 2.0 0.00 0.00 0.00 10 1027.5
20260502063424 58 339 2.0 2.0 0.00 0.00 0.00 10 1027.6
20260502063419 58 339 2.0 2.0 0.00 0.00 0.00 10 1027.6
20260502062026 57 141 1.0 2.0 0.00 0.00 0.00 10 1027.6
20260502061554 56 135 1.0 2.0 0.00 0.00 0.00 10 1027.5
20260502061549 56 135 1.0 2.0 0.00 0.00 0.00 10 1027.5
20260502060157 53 322 0.0 1.0 0.00 0.00 0.00 10 1027.6
20260502055724 52 0 0.0 1.0 0.00 0.00 0.00
20260502055719 52 0 0.0 1.0 0.00 0.00 0.00 10 1027.6
20260502055247 52 357 1.0 1.0 0.00 0.00 0.00 10 1027.6
20260502055242 52 357 1.0 1.0 0.00 0.00 0.00 10 1027.6
20260502054805 51 333 1.0 1.0 0.00 0.00 0.00 10 1027.6
20260502053850 51 318 1.0 2.0 0.00 0.00 0.00 10 1027.6
20260502053418 50 321 1.0 2.0 0.00 0.00 0.00 10 1027.7
20260502053413 50 321 1.0 2.0 0.00 0.00 0.00 10 1027.7
20260502052941 50 353 1.0 2.0 0.00 0.00 0.00 10 1027.6
20260502052936 50 353 1.0 2.0 0.00 0.00 0.00 10 1027.6
20260502052504 49 184 1.0 1.0 0.00 0.00 0.00 10 1027.7
20260502052458 49 184 1.0 1.0 0.00 0.00 0.00 10 1027.7
20260502051549 48 135 0.0 0.0 0.00 0.00 0.00 10 1027.7
20260502051544 48 135 0.0 0.0 0.00 0.00 0.00 10 1027.7
20260502051112 47 135 0.0 0.0 0.00 0.00 0.00 10 1027.7
20260502051107 47 135 0.0 0.0 0.00 0.00 0.00 10 1027.7
20260502045716 44 135 1.0 2.0 0.00 0.00 0.00 10 1027.6
20260502045243 43 135 1.0 1.0 0.00 0.00 0.00 10 1027.7
20260502045238 43 135 1.0 1.0 0.00 0.00 0.00 10 1027.7
20260502043852 41 187 1.0 2.0 0.00 0.00 0.00 10 1027.6
20260502043847 41 187 1.0 2.0 0.00 0.00 0.00 10 1027.6
20260502043415 41 145 1.0 2.0 0.00 0.00 0.00 10 1027.5
20260502043410 41 145 1.0 2.0 0.00 0.00 0.00 10 1027.5
20260502042938 40 135 2.0 2.0 0.00 0.00 0.00 10 1027.6
20260502042933 40 135 2.0 2.0 0.00 0.00 0.00 10 1027.6
20260502042734 39 135 1.0 2.0 0.00 0.00 0.00 10 1027.6
20260502042501 39 135 1.0 2.0 0.00 0.00 0.00 10 1027.6
20260502042456 39 135 1.0 2.0 0.00 0.00 0.00 10 1027.6
20260502042057 39 135 2.0 3.0 0.00 0.00 0.00 10 1027.5
20260502042019 39 135 2.0 3.0 0.00 0.00 0.00 10 1027.5
20260502041650 38 135 2.0 2.0 0.00 0.00 0.00 10 1.0
20260502041547 38 135 2.0 2.0 0.00 0.00 0.00 10 1027.5
20260502041542 38 135 2.0 2.0 0.00 0.00 0.00 10 1027.5
20260502041540 37 135 1.0 1.0 0.00 0.00 0.00 10 1027.5
20260502041109 37 135 1.0 1.0 0.00 0.00 0.00 10 1027.5
20260502041105 37 135 1.0 1.0 0.00 0.00 0.00 10 1027.5
20260502040632 37 135 1.0 2.0 0.00 0.00 0.00 10 1027.5
20260502040627 37 135 1.0 2.0 0.00 0.00 0.00 10 1027.5
20260502040151 37 138 1.0 2.0 0.00 0.00 0.00 10 1027.5
20260502035713 37 138 1.0 2.0 0.00 0.00 0.00 10 1027.4
20260502035236 36 135 1.0 2.0 0.00 0.00 0.00 10 1027.5
20260502034851 35 136 2.0 2.0 0.00 0.00 0.00 10 1027.4
20260502034804 35 136 2.0 2.0 0.00 0.00 0.00 10 1027.4
20260502034759 35 136 2.0 2.0 0.00 0.00 0.00 10 1027.4
20260502034322 35 136 1.0 2.0 0.00 0.00 0.00 10 1027.5
20260502033851 35 135 1.0 2.0 0.00 0.00 0.00 10 1027.4
20260502033845 35 135 1.0 2.0 0.00 0.00 0.00 10 1027.4
20260502033408 35 138 2.0 2.0 0.00 0.00 0.00 10 1027.5
20260502032459 36 138 1.0 2.0 0.00 0.00 0.00 10 1027.5
20260502032454 36 138 1.0 2.0 0.00 0.00 0.00 10 1027.5
20260502031545 36 147 1.0 2.0 0.00 0.00 0.00 10 1027.5
20260502031540 36 147 1.0 2.0 0.00 0.00 0.00 10 1027.5
20260502030626 36 135 1.0 2.0 0.00 0.00 0.00 10 1027.5
20260502025717 37 147 2.0 2.0 0.00 0.00 0.00 10 1027.5
20260502025712 37 147 2.0 2.0 0.00 0.00 0.00 10 1027.5
20260502025240 37 135 1.0 2.0 0.00 0.00 0.00 10 1027.5
20260502025235 37 135 1.0 2.0 0.00 0.00 0.00 10 1027.5
20260502023411 37 135 1.0 2.0 0.00 0.00 0.00 10 1027.6
20260502023407 37 135 1.0 2.0 0.00 0.00 0.00 10 1027.6
20260502022935 36 135 1.0 2.0 0.00 0.00 0.00 10 1027.6
20260502022930 36 135 1.0 2.0 0.00 0.00 0.00 10 1027.6
20260502022458 37 135 2.0 2.0 0.00 0.00 0.00 10 1027.6
20260502022452 37 135 2.0 2.0 0.00 0.00 0.00 10 1027.6
20260502022016 37 135 2.0 2.0 0.00 0.00 0.00 10 1027.6
20260502020629 38 131 3.0 3.0 0.00 0.00 0.00 10 1027.7
20260502020624 38 131 3.0 3.0 0.00 0.00 0.00 10 1027.7
20260502015715 38 135 2.0 2.0 0.00 0.00 0.00 10 1027.6
20260502015710 38 135 2.0 2.0 0.00 0.00 0.00 10 1027.6
20260502015238 38 135 1.0 2.0 0.00 0.00 0.00 10 1027.7
20260502015233 38 135 1.0 2.0 0.00 0.00 0.00 10 1027.7
20260502013405 38 135 2.0 2.0 0.00 0.00 0.00 10 1027.7
20260502012933 38 135 1.0 2.0 0.00 0.00 0.00 10 1027.7
20260502012928 38 135 1.0 2.0 0.00 0.00 0.00 10 1027.7
20260502012014 38 123 2.0 2.0 0.00 0.00 0.00 10 1027.7
20260502011100 37 135 1.0 2.0 0.00 0.00 0.00 10 1027.7
20260502010628 37 135 1.0 2.0 0.00 0.00 0.00 10 1027.7
20260502010622 37 135 1.0 2.0 0.00 0.00 0.00 10 1027.7
20260502005708 37 135 1.0 2.0 0.00 0.00 0.00 10 1027.7
20260502005237 37 135 1.0 2.0 0.00 0.00 0.00 10 1027.7
20260502005231 37 135 1.0 2.0 0.00 0.00 0.00 10 1027.7
20260502004754 37 138 2.0 2.0 0.00 0.00 0.00 10 1027.7
20260502004322 38 135 1.0 2.0 0.00 0.00 0.00 10 1027.7
20260502004317 38 135 1.0 2.0 0.00 0.00 0.00 10 1027.7
20260502003840 39 135 1.0 2.0 0.00 0.00 0.00 10 1027.8
20260502002454 39 135 0.0 0.0 0.00 0.00 0.00 10 1027.8
20260502002449 39 135 0.0 0.0 0.00 0.00 0.00 10 1027.8
20260502002012 40 135 0.0 0.0 0.00 0.00 0.00 10 1027.8
20260502001535 40 135 1.0 1.0 0.00 0.00 0.00 10 1027.8
20260502001103 40 135 1.0 1.0 0.00 0.00 0.00 10 1027.8
20260502001058 40 135 1.0 1.0 0.00 0.00 0.00 10 1027.8
20260502000626 40 135 1.0 1.0 0.00 0.00 0.00 10 1027.7
20260502000621 40 135 1.0 1.0 0.00 0.00 0.00 10 1027.7
20260502000149 40 135 1.0 2.0 0.00 0.00 0.00 10 1027.7
20260502000144 40 135 1.0 2.0 0.00 0.00 0.00 10 1027.7
20260501235707 40 135 1.0 2.0 0.00 0.00 0.00 10 1027.7
20260501235235 41 164 1.0 2.0 0.00 0.00 0.00 10 1027.8
20260501235229 41 164 1.0 2.0 0.00 0.00 0.00 10 1027.8
20260501234752 41 179 1.0 2.0 0.00 0.00 0.00 10 1027.7
20260501234320 42 135 1.0 2.0 0.00 0.00 0.00 10 1.0
20260501234315 42 135 1.0 2.0 0.00 0.00 0.00 10 1027.7
20260501233843 43 135 2.0 2.0 0.00 0.00 0.00 10 1027.7
20260501233838 43 135 2.0 2.0 0.00 0.00 0.00 10 1027.7
20260501232929 44 135 1.0 2.0 0.00 0.00 0.00 10 1027.7
20260501232924 44 135 1.0 2.0 0.00 0.00 0.00 10 1027.7
20260501232447 43 135 2.0 2.0 0.00 0.00 0.00 10 1027.8
20260501232010 43 135 1.0 2.0 0.00 0.00 0.00 10 1027.8
20260501231055 43 164 2.0 2.0 0.00 0.00 0.00 10 1027.9
20260501230624 43 197 1.0 2.0 0.00 0.00 0.00 10 1027.9
20260501230618 43 197 1.0 2.0 0.00 0.00 0.00 10 1027.9
20260501230147 44 161 1.0 2.0 0.00 0.00 0.00 10 1027.8
20260501225709 45 135 2.0 3.0 0.00 0.00 0.00 10 1027.8
20260501225704 45 135 2.0 3.0 0.00 0.00 0.00 10 1027.8
20260501225232 45 135 2.0 3.0 0.00 0.00 0.00 10 1027.8
20260501225227 45 135 2.0 3.0 0.00 0.00 0.00 10 1027.8
20260501224750 45 135 3.0 3.0 0.00 0.00 0.00 10 1027.8
20260501224313 45 135 2.0 3.0 0.00 0.00 0.00 10 1027.9
20260501223404 43 135 2.0 3.0 0.00 0.00 0.00 10 1028.0
20260501223359 43 135 2.0 3.0 0.00 0.00 0.00 10 1028.0
20260501222927 42 136 2.0 2.0 0.00 0.00 0.00 10 1028.0
20260501222921 42 136 2.0 2.0 0.00 0.00 0.00 10 1028.0
20260501222450 41 158 2.0 2.0 0.00 0.00 0.00 10 1028.0
20260501222444 41 158 2.0 2.0 0.00 0.00 0.00 10 1028.0
20260501221530 42 135 1.0 2.0 0.00 0.00 0.00 10 1028.0
20260501220621 43 135 2.0 2.0 0.00 0.00 0.00 10 1028.1
20260501220616 43 135 2.0 2.0 0.00 0.00 0.00 10 1028.1
20260501215707 42 135 2.0 2.0 0.00 0.00 0.00 10 1028.2
20260501215702 42 135 2.0 2.0 0.00 0.00 0.00 10 1028.2
20260501215230 42 158 2.0 2.0 0.00 0.00 0.00 10 1028.2
20260501215225 42 158 2.0 2.0 0.00 0.00 0.00 10 1028.2
20260501214748 42 180 1.0 2.0 0.00 0.00 0.00 10 1028.1
20260501214311 42 162 1.0 2.0 0.00 0.00 0.00 10 1028.1
20260501213834 42 148 1.0 2.0 0.00 0.00 0.00 10 1028.1
20260501213356 42 135 2.0 2.0 0.00 0.00 0.00 10 1028.0
20260501212919 42 141 2.0 2.0 0.00 0.00 0.00 10 1028.0
20260501212010 42 167 2.0 2.0 0.00 0.00 0.00 10 1027.9
20260501212005 42 167 2.0 2.0 0.00 0.00 0.00 10 1027.9
20260501211533 42 135 2.0 2.0 0.00 0.00 0.00 10 1027.9
20260501211528 42 135 2.0 2.0 0.00 0.00 0.00 10 1027.9
20260501211056 43 135 1.0 2.0 0.00 0.00 0.00 10 1027.9
20260501211051 43 135 1.0 2.0 0.00 0.00 0.00 10 1027.9
20260501210619 44 139 2.0 2.0 0.00 0.00 0.00 10 1027.9
20260501210614 44 139 2.0 2.0 0.00 0.00 0.00 10 1027.9
20260501210137 45 139 2.0 2.0 0.00 0.00 0.00 10 1027.9
20260501205700 46 138 2.0 2.0 0.00 0.00 0.00 10 1027.8
20260501205228 46 135 1.0 2.0 0.00 0.00 0.00 10 1027.9
20260501205222 46 135 1.0 2.0 0.00 0.00 0.00 10 1027.9
20260501204746 45 135 1.0 2.0 0.00 0.00 0.00 10 1027.9
20260501204313 45 156 2.0 2.0 0.00 0.00 0.00 10 1027.8
20260501204308 45 156 2.0 2.0 0.00 0.00 0.00 10 1027.8
20260501203354 44 148 1.0 2.0 0.00 0.00 0.00 10 1027.9
20260501202917 44 150 1.0 1.0 0.00 0.00 0.00 10 1027.9
20260501202440 44 148 1.0 2.0 0.00 0.00 0.00 10 1027.8
20260501201531 43 161 1.0 2.0 0.00 0.00 0.00 10 1027.9
20260501201525 43 161 1.0 2.0 0.00 0.00 0.00 10 1027.9
20260501201053 43 170 1.0 2.0 0.00 0.00 0.00 10 1027.9
20260501201048 43 170 1.0 2.0 0.00 0.00 0.00 10 1027.9
20260501200616 44 135 1.0 2.0 0.00 0.00 0.00 10 1027.8
20260501200611 44 135 1.0 2.0 0.00 0.00 0.00 10 1027.8
20260501195702 44 135 1.0 2.0 0.00 0.00 0.00 10 1.0
20260501195657 44 135 1.0 2.0 0.00 0.00 0.00 10 1027.8
20260501195225 45 135 1.0 2.0 0.00 0.00 0.00 10 1027.7
20260501195220 45 135 1.0 2.0 0.00 0.00 0.00 10 1027.7
20260501194743 45 135 1.0 2.0 0.00 0.00 0.00 10 1027.7
20260501194306 46 135 1.0 2.0 0.00 0.00 0.00 10 1027.7
20260501193828 47 135 1.0 2.0 0.00 0.00 0.00 10 1027.7
20260501193351 48 135 1.0 2.0 0.00 0.00 0.00 10 1027.7
20260501192919 49 135 1.0 2.0 0.00 0.00 0.00 10 1027.6
20260501192914 49 135 1.0 2.0 0.00 0.00 0.00 10 1027.6
20260501192442 50 135 1.0 2.0 0.00 0.00 0.00 10 1027.6
20260501192437 50 135 1.0 2.0 0.00 0.00 0.00 10 1027.6
20260501191050 54 135 1.0 1.0 0.00 0.00 0.00 10 1027.6
20260501191045 54 135 1.0 1.0 0.00 0.00 0.00 10 1027.6
20260501190607 55 135 1.0 1.0 0.00 0.00 0.00 90 1027.5
20260501190130 56 135 0.0 1.0 0.00 0.00 0.00 77 1027.4
20260501185220 56 135 0.0 0.0 0.00 0.00 0.00 74 1027.4
20260501185215 56 135 0.0 0.0 0.00 0.00 0.00 74 1027.4
20260501184743 56 135 0.0 0.0 0.00 0.00 0.00 74 1027.4
20260501184738 56 135 0.0 0.0 0.00 0.00 0.00 74 1027.4
20260501183823 56 135 0.0 0.0 0.00 0.00 0.00 72 1027.3
20260501182431 59 135 0.0 1.0 0.00 0.00 0.00 58 1027.2